Satellite: NO-44
Catalog number: 26931
Epoch time:      10364.65137767
Element set:     643
Inclination:      067.0534 deg
RA of node:       057.7850 deg
Eccentricity:    0.0006573
Arg of perigee:   274.9372 deg
Mean anomaly:     085.0979 deg
Mean motion:   14.29628584 rev/day
Decay rate:       1.60e-06 rev/day^2
Epoch rev:           48283
Checksum:              339

Satellite: SO-50
Catalog number: 27607
Epoch time:      10363.79449620
Element set:    0355
Inclination:      064.5574 deg
RA of node:       122.3388 deg
Eccentricity:    0.0053111
Arg of perigee:   002.6722 deg
Mean anomaly:     357.4637 deg
Mean motion:   14.71624651 rev/day
Decay rate:       1.56e-06 rev/day^2
Epoch rev:           43116
Checksum:              291

Satellite: CO-55
Catalog number: 27844
Epoch time:      10364.09038789
Element set:      10
Inclination:      098.7073 deg
RA of node:       010.2456 deg
Eccentricity:    0.0009596
Arg of perigee:   330.9641 deg
Mean anomaly:     029.0991 deg
Mean motion:   14.20757643 rev/day
Decay rate:        5.0e-07 rev/day^2
Epoch rev:           38890
Checksum:              314

Satellite: CO-57
Catalog number: 27848
Epoch time:      10363.51496051
Element set:    0959
Inclination:      098.7131 deg
RA of node:       008.8156 deg
Eccentricity:    0.0009694
Arg of perigee:   337.1184 deg
Mean anomaly:     022.9557 deg
Mean motion:   14.20544015 rev/day
Decay rate:        1.0e-07 rev/day^2
Epoch rev:           38877
Checksum:              321

Satellite: AO-51
Catalog number: 28375
Epoch time:      10363.86232249
Element set:     859
Inclination:      098.0781 deg
RA of node:       346.3989 deg
Eccentricity:    0.0082837
Arg of perigee:   223.6874 deg
Mean anomaly:     135.7737 deg
Mean motion:   14.40717430 rev/day
Decay rate:        3.7e-07 rev/day^2
Epoch rev:           34168
Checksum:              344

Satellite: CP3
Catalog number: 31129
Epoch time:      10364.57143916
Element set:     760
Inclination:      097.9181 deg
RA of node:       033.4001 deg
Eccentricity:    0.0102185
Arg of perigee:   345.1636 deg
Mean anomaly:     014.6553 deg
Mean motion:   14.52355310 rev/day
Decay rate:       -5.8e-07 rev/day^2
Epoch rev:           19636
Checksum:              275

Satellite: CO-65
Catalog number: 32785
Epoch time:      10363.19159920
Element set:    0875
Inclination:      097.8731 deg
RA of node:       065.1695 deg
Eccentricity:    0.0015253
Arg of perigee:   014.3546 deg
Mean anomaly:     345.8094 deg
Mean motion:   14.81794607 rev/day
Decay rate:       -9.9e-07 rev/day^2
Epoch rev:           14436
Checksum:              339

Satellite: KKS-1
Catalog number: 33493
Epoch time:      10364.64350585
Element set:     175
Inclination:      098.1043 deg
RA of node:       126.0993 deg
Eccentricity:    0.0019080
Arg of perigee:   223.3225 deg
Mean anomaly:     136.6491 deg
Mean motion:   14.81260927 rev/day
Decay rate:       5.53e-06 rev/day^2
Epoch rev:           10456
Checksum:              287

Satellite: SOHLA-1
Catalog number: 33496
Epoch time:      10364.87392391
Element set:     294
Inclination:      098.0684 deg
RA of node:       111.5599 deg
Eccentricity:    0.0005742
Arg of perigee:   305.4353 deg
Mean anomaly:     054.6303 deg
Mean motion:   14.69544504 rev/day
Decay rate:       -6.4e-07 rev/day^2
Epoch rev:           10376
Checksum:              306

Satellite: TISAT-1
Catalog number: 36799
Epoch time:      10364.63505420
Element set:     449
Inclination:      098.1244 deg
RA of node:       066.0794 deg
Eccentricity:    0.0016711
Arg of perigee:   100.8419 deg
Mean anomaly:     259.4680 deg
Mean motion:   14.80275788 rev/day
Decay rate:       3.51e-06 rev/day^2
Epoch rev:            2537
Checksum:              310

Satellite: STUDSAT
Catalog number: 36801
Epoch time:      10363.81251431
Element set:    0119
Inclination:      098.1265 deg
RA of node:       065.1163 deg
Eccentricity:    0.0014877
Arg of perigee:   091.6839 deg
Mean anomaly:     268.6076 deg
Mean motion:   14.79909341 rev/day
Decay rate:       9.21e-06 rev/day^2
Epoch rev:           02524
Checksum:              299

Satellite: RAX
Catalog number: 37223
Epoch time:      10362.43615929
Element set:    0040
Inclination:      071.9728 deg
RA of node:       055.5754 deg
Eccentricity:    0.0022715
Arg of perigee:   245.7465 deg
Mean anomaly:     114.1313 deg
Mean motion:   14.77205443 rev/day
Decay rate:       2.92e-06 rev/day^2
Epoch rev:           00567
Checksum:              278

Satellite: OOREOS
Catalog number: 37224
Epoch time:      10361.49649035
Element set:    0041
Inclination:      071.9733 deg
RA of node:       057.6930 deg
Eccentricity:    0.0021329
Arg of perigee:   245.9311 deg
Mean anomaly:     113.9603 deg
Mean motion:   14.76870385 rev/day
Decay rate:       2.32e-06 rev/day^2
Epoch rev:           00552
Checksum:              276

Satellite: FASTSAT
Catalog number: 37225
Epoch time:      10339.55430316
Element set:    0021
Inclination:      071.9720 deg
RA of node:       106.1057 deg
Eccentricity:    0.0019965
Arg of perigee:   280.4841 deg
Mean anomaly:     079.4053 deg
Mean motion:   14.76483442 rev/day
Decay rate:        4.1e-07 rev/day^2
Epoch rev:           00228
Checksum:              266

